Regional Weather Roundup
Issued by NWS

Home | Current Version | Previous Version | Graphics & Text | Print | Product List | Glossary On
Versions: 1 2 3 4 5 6 7 8 9 10 11 12 13 14 15 16 17 18 19 20 21 22 23 24 25 26 27 28 29 30 31 32 33 34 35 36 37 38 39 40 41 42 43 44 45 46 47 48 49 50
000
ASUS44 KMEG 040610
RWRTN
TENNESSEE HOURLY STATE WEATHER ROUNDUP
NATIONAL WEATHER SERVICE MEMPHIS TN
100 AM CDT MON MAY 04 2015

TNZ002-004-019-021-049-052-054-088>092-040700-
WEST TENNESSEE

CITY           SKY/WX    TMP DP  RH WIND       PRES   REMARKS
MEMPHIS INTL   CLEAR     69  51  52 S9        30.07S
NWS MEMPHIS      N/A     66 N/A N/A MISG        N/A
JACKSON        CLEAR     61  51  70 S5        30.08F
DYERSBURG      CLEAR     64  43  45 S6        30.07F
PARIS          CLEAR     61  46  59 S6        30.08F
LEXINGTON      CLEAR     54  52  94 SE3       30.09F
$$

TNZ008-025-027-028-033-062-065-066-040700-
NORTH MIDDLE TENNESSEE

CITY           SKY/WX    TMP DP  RH WIND       PRES   REMARKS
NASHVILLE      CLEAR     58  51  78 S5        30.13S
CLARKSVILLE    CLEAR     58  51  78 SE3       30.09F
SMYRNA         CLEAR     56  51  83 CALM      30.14F
COOKEVILLE     CLEAR     50  48  93 CALM      30.15F
CROSSVILLE     CLEAR     57  46  66 CALM      30.20F
$$

TNZ061-075-076-078-094-096-097-040700-
SOUTH MIDDLE TENNESSEE

CITY           SKY/WX    TMP DP  RH WIND       PRES   REMARKS
FAYETTEVILLE     N/A     57  48  72 CALM      30.16F
TULLAHOMA      CLEAR     52  48  87 CALM      30.18S
WINCHESTER     CLEAR     55  48  76 SE3       30.17F
MCMINNVILLE    CLEAR     54  54 100 MISG      30.17S
COLUMBIA       CLEAR     55  52  88 CALM      30.12F
SHELBYVILLE    CLEAR     55  52  88 E6        30.16S
$$

TNZ017-018-042-046-047-040700-
NORTHEAST TENNESSEE

CITY           SKY/WX    TMP DP  RH WIND       PRES   REMARKS
TRI CITIES     MOCLDY    55  48  77 CALM      30.21R
ELIZABETHTON   PTCLDY    48  45  87 CALM      30.22S
$$

TNZ012-013-036-069-073-074-040700-
CENTRAL EAST TENNESSEE

CITY           SKY/WX    TMP DP  RH WIND       PRES   REMARKS
KNOXVILLE      PTCLDY    60  50  69 CALM      30.17S
OAK RIDGE      CLEAR     55  51  86 CALM      30.19S
GATLINBURG     CLEAR     54  48  82 CALM      30.19S
MORRISTOWN     CLEAR     61  48  63 SW3       30.20S
$$

TNZ083-085-099-040700-
SOUTHEAST TENNESSEE

CITY           SKY/WX    TMP DP  RH WIND       PRES   REMARKS
CHATTANOOGA    CLEAR     57  51  80 CALM      30.18S
$$

SKY/WX REPORTED AS FAIR MEANS FEW OR NO CLOUDS BELOW
12 THOUSAND FEET.




USA.gov is the U.S. government's official web portal to all federal, state and local government web resources and services.